Cloud_Cover
64 64 56 56 48 48 44 36 36 36 44 44 36 32 24 24 20 20 20 20 20 20 20 20 20 20 20 20 20 20 20 20 12 12 12 12 12 12 24 32 44 64 68 64 44 24 12 8 0 0 0 0 0 0 0 0 0 0 0 0 0 0 0 0 0 0 0 0 0 0 0 0 0 0 0 0 0 0 0 0 0 0 0 0 0 0 0 0 0 0 0 0 0 0 0 0 0 0 0 0 0 0 0
56 56 48 44 36 36 32 36 44 44 44 36 36 36 32 24 24 20 20 20 20 20 20 20 12 12 12 12 12 12 12 12 12 12 12 12 12 8 32 36 32 36 44 32 20 8 8 0 0 0 0 0 0 0 0 0 0 0 0 0 0 0 0 0 0 0 0 0 0 0 0 0 0 0 0 0 0 0 0 0 0 0 0 0 0 0 0 0 0 0 0 0 0 0 0 0 0 0 0 0 0 0 0
56 48 36 32 32 36 32 36 36 36 36 36 44 32 36 36 32 24 20 20 20 20 12 12 12 12 12 12 12 12 12 12 12 12 8 8 8 8 8 24 32 24 12 8 8 0 0 0 0 0 0 0 0 0 0 0 0 0 0 0 0 0 0 0 0 0 0 0 0 0 0 0 0 0 0 0 0 0 0 0 0 0 0 0 0 0 0 0 0 0 0 0 0 0 0 0 0 0 0 0 0 0 0
48 44 32 32 32 36 36 32 36 44 48 56 56 56 64 64 56 36 32 32 24 20 20 12 12 12 12 12 8 8 8 8 8 8 8 0 0 0 0 8 12 8 8 0 0 0 0 0 0 0 0 0 0 0 0 0 0 0 0 0 0 0 0 0 0 0 0 0 0 0 0 0 0 0 0 0 0 0 0 0 0 0 0 0 0 0 0 0 0 0 0 0 0 0 0 0 0 0 0 0 0 0 0
44 36 32 32 32 32 32 36 48 48 48 44 36 24 24 24 24 24 36 44 36 32 24 20 20 20 20 20 12 8 8 0 0 0 0 0 0 0 0 0 8 0 0 0 0 0 0 0 0 0 0 0 0 0 0 0 0 0 0 0 0 0 0 0 0 0 0 0 0 0 0 0 0 0 0 0 0 0 0 0 0 0 0 0 0 0 0 0 0 0 0 0 0 0 0 0 0 0 0 0 0 0 0
36 32 32 36 36 36 44 48 48 48 36 32 32 32 32 24 24 24 20 32 36 44 36 36 32 32 20 12 8 8 8 8 0 8 0 0 0 0 0 0 0 0 0 0 0 0 0 0 0 0 0 0 0 0 0 0 0 0 0 0 0 0 0 0 0 0 0 0 0 0 0 0 0 0 0 0 0 0 0 0 0 0 0 0 0 0 0 0 0 0 0 0 0 0 0 0 0 0 0 0 0 0 0
36 36 32 36 36 48 44 44 44 36 36 32 32 32 24 24 20 20 24 32 44 48 44 44 36 32 20 8 0 0 0 0 0 0 0 0 0 0 0 0 0 0 0 0 0 0 0 0 0 0 0 0 0 0 0 0 0 0 0 0 0 0 0 0 0 0 0 0 0 0 0 0 0 0 0 0 0 0 0 0 0 0 0 0 0 0 0 0 0 0 0 0 0 0 0 0 0 0 0 0 0 0 0
32 36 44 48 48 44 44 44 44 32 24 24 24 20 20 20 12 8 8 8 8 8 8 12 20 12 8 0 0 0 0 0 0 0 0 0 0 0 0 0 0 0 0 0 0 0 0 0 0 0 0 0 0 0 0 0 0 0 0 0 0 0 0 0 0 0 0 0 0 0 0 0 0 0 0 0 0 0 0 0 0 0 0 0 0 0 0 0 0 0 0 0 0 0 0 0 0 0 0 0 0 0 0
48 48 48 44 44 36 32 32 32 20 20 20 12 12 8 8 8 8 8 8 8 8 8 8 8 0 0 0 0 0 0 0 0 0 0 0 0 0 0 0 0 0 0 0 0 0 0 0 0 0 0 0 0 0 0 0 0 0 0 0 0 0 0 0 0 0 0 0 0 0 0 0 0 0 0 0 0 0 0 0 0 0 0 0 0 0 0 0 0 0 0 0 0 0 0 0 0 0 0 0 0 0 0
44 36 36 32 24 20 20 8 8 12 12 12 12 8 8 8 0 0 0 0 0 0 0 0 0 0 0 0 0 0 0 0 0 0 0 0 0 0 0 0 0 0 0 0 0 0 0 0 0 0 0 0 0 0 0 0 0 0 0 0 0 0 0 0 0 0 0 0 0 0 0 0 0 0 0 0 0 0 0 0 0 0 0 0 0 0 0 0 0 0 0 0 0 0 0 0 0 0 0 0 0 0 0
36 36 24 24 20 12 12 12 8 0 0 8 8 8 0 0 0 0 0 0 0 0 0 0 0 0 0 0 0 0 0 0 0 0 0 0 0 0 0 0 0 0 0 0 0 0 0 0 0 0 0 0 0 0 0 0 0 0 0 0 0 0 0 0 0 0 0 0 0 0 0 0 0 0 0 0 0 0 0 0 0 0 0 0 0 0 0 0 0 0 0 0 0 0 0 0 0 0 0 0 0 0 0
32 32 24 20 20 20 12 12 8 0 8 0 0 0 0 0 0 0 0 0 0 0 0 0 0 0 0 0 0 0 0 0 0 0 0 0 0 0 0 0 0 0 0 0 0 0 0 0 0 0 0 0 0 0 0 0 0 0 0 0 0 0 0 0 0 0 0 0 0 0 0 0 0 0 0 0 0 0 0 0 0 0 0 0 0 0 0 0 0 0 0 0 0 0 0 0 0 0 0 0 0 0 0
24 24 24 20 12 12 8 0 0 0 0 0 0 0 0 0 0 0 0 0 0 0 0 0 0 0 0 0 0 0 0 0 0 0 0 0 0 0 0 0 0 0 0 0 0 0 0 0 0 0 0 0 0 0 0 0 0 0 0 0 0 0 0 0 0 0 0 0 0 0 0 0 0 0 0 0 0 0 0 0 0 0 0 0 0 0 0 0 0 0 0 0 0 0 0 0 0 0 0 0 0 0 0
20 12 12 12 8 8 0 0 0 0 0 0 0 0 0 0 0 0 0 0 0 0 0 0 0 0 0 0 0 0 0 0 0 0 0 0 0 0 0 0 0 0 0 0 0 0 0 0 0 0 0 0 0 0 8 12 8 0 0 0 0 0 0 0 0 0 0 0 0 0 0 0 0 0 0 0 0 0 0 0 0 0 0 0 0 0 0 0 0 0 0 0 0 0 0 0 0 0 0 0 0 0 0
8 8 8 8 0 0 0 0 0 0 0 0 0 0 0 0 0 0 0 0 0 0 0 0 0 0 0 0 0 0 0 0 0 0 0 0 0 0 0 0 0 0 0 0 0 0 0 0 0 0 0 0 0 8 12 12 8 0 0 0 0 0 0 0 0 0 0 0 0 0 0 0 0 0 0 0 0 0 0 0 0 0 0 0 0 0 0 0 0 0 0 0 0 0 0 0 0 0 0 0 0 0 0
8 8 8 0 0 0 0 0 0 0 0 0 0 0 0 0 0 0 0 0 0 0 0 0 0 0 0 0 0 0 0 0 0 0 0 0 0 0 0 0 0 0 0 0 0 0 0 0 0 0 0 0 0 0 8 12 8 0 0 0 0 0 0 0 0 0 0 0 0 0 0 0 0 0 0 0 0 0 0 0 0 0 0 0 0 0 0 0 0 0 0 0 0 0 0 0 0 0 0 8 12 0 0
8 8 0 0 0 0 0 0 0 0 0 0 0 0 0 0 0 0 0 0 0 0 0 0 0 0 0 0 0 0 0 0 0 0 0 0 0 0 0 0 0 0 0 0 0 0 0 0 0 0 0 0 0 0 0 8 8 0 0 0 0 0 0 0 0 0 0 0 0 0 0 0 0 0 0 0 0 0 0 0 0 0 0 0 0 0 0 0 0 0 0 0 0 0 0 0 0 0 0 12 20 0 0
8 8 8 8 0 0 0 0 0 0 0 0 0 0 0 0 0 0 0 0 0 0 0 0 0 0 0 0 0 0 0 0 0 0 0 0 0 0 0 0 0 0 0 0 0 0 0 0 0 0 0 0 0 0 0 8 12 0 0 0 0 0 0 0 0 0 0 0 0 0 0 0 0 0 0 0 0 0 0 0 0 0 0 0 0 0 0 0 0 0 0 0 0 0 0 0 0 0 0 0 0 0 0
8 8 8 8 0 0 0 0 0 0 0 0 0 0 0 0 0 0 0 0 0 0 0 0 0 0 0 0 0 0 0 0 0 0 0 0 0 0 0 0 0 0 0 0 0 0 0 0 0 0 0 0 0 0 8 12 12 0 0 0 0 0 0 0 0 0 0 0 0 0 0 0 0 0 0 0 0 0 0 0 0 0 0 0 0 0 0 0 0 0 0 0 0 0 0 0 0 12 20 24 20 0 0
8 0 0 0 0 0 0 0 0 0 0 0 0 0 0 0 0 0 0 0 0 0 0 0 0 0 0 0 0 0 0 0 0 0 0 0 0 0 0 0 0 0 0 0 0 0 0 0 0 0 0 0 0 0 8 12 8 0 0 0 0 0 0 0 0 0 0 0 0 0 0 0 0 0 0 0 0 0 0 0 0 0 0 0 0 0 0 0 0 0 0 0 0 0 0 0 0 12 24 32 24 8 0
0 0 0 0 0 0 0 0 0 0 0 0 0 0 0 0 0 0 0 0 0 0 0 0 0 0 0 0 0 0 0 0 0 0 0 0 0 0 0 0 0 0 0 0 0 0 0 0 0 0 0 0 0 0 12 12 8 0 0 0 0 0 0 0 0 0 0 0 0 0 0 0 0 0 0 0 0 0 0 0 0 0 0 0 0 0 0 0 0 0 0 0 0 0 0 0 0 0 8 8 8 0 0
0 0 0 0 0 0 0 0 0 0 0 0 0 0 0 0 0 0 0 0 0 0 0 0 0 0 0 0 0 0 0 0 0 0 0 0 0 0 0 0 0 0 0 0 0 0 0 0 0 0 0 0 0 8 8 8 0 0 0 0 0 0 0 0 0 0 0 0 0 0 0 0 0 0 0 0 0 0 0 0 0 0 0 0 0 0 0 0 0 0 0 0 0 0 0 0 0 0 0 0 0 0 0
0 0 0 0 0 0 0 0 0 0 0 0 0 0 0 0 0 0 0 0 0 0 0 0 0 0 0 0 0 0 0 0 0 0 0 0 0 0 0 0 0 0 0 0 0 0 0 0 0 0 0 0 0 8 8 0 0 0 0 0 0 0 0 0 0 0 0 0 0 0 0 0 0 0 0 0 0 0 0 0 0 0 0 0 0 0 0 0 0 0 0 0 0 0 0 0 0 0 0 0 0 0 0
0 0 0 0 0 0 0 0 0 0 0 0 0 0 0 0 0 0 0 0 0 0 0 0 0 0 0 0 0 0 0 0 0 0 0 0 0 0 0 0 0 0 0 0 0 0 0 0 0 0 0 0 0 0 0 0 0 0 0 0 0 0 8 8 0 0 0 0 0 0 0 0 0 0 0 0 0 0 0 0 0 0 0 0 0 0 0 0 0 0 0 0 0 0 0 0 0 0 0 0 0 0 0
0 0 0 0 0 0 0 0 0 0 0 0 0 0 0 0 0 0 0 0 0 0 0 0 0 0 0 0 0 0 0 0 0 0 0 0 0 0 0 0 0 0 0 0 0 0 0 0 0 0 0 0 0 0 0 0 0 0 0 8 8 8 8 8 0 0 0 0 0 0 0 0 0 0 0 0 0 0 0 0 0 0 0 0 0 0 0 0 0 0 0 0 0 0 0 0 0 0 0 0 0 0 0
0 0 0 0 0 0 0 0 0 0 0 0 0 0 0 0 0 0 0 0 0 0 0 0 0 0 0 0 0 0 0 0 0 0 0 0 0 0 0 0 0 0 0 0 0 0 0 0 0 0 0 0 0 0 0 0 0 0 8 8 8 0 0 0 0 0 0 0 0 0 0 0 0 0 0 0 0 0 0 0 0 0 0 0 0 0 0 0 0 0 0 0 0 0 0 0 0 0 0 0 0 0 24
0 0 0 0 0 0 0 0 0 0 0 0 0 0 0 0 0 0 0 0 0 0 0 0 0 0 0 0 0 0 0 0 0 0 0 0 0 0 0 0 0 0 0 0 0 0 0 0 0 0 0 0 0 0 0 0 0 0 0 0 0 0 0 0 0 0 0 0 0 0 0 0 0 0 0 0 0 0 0 0 0 0 0 0 0 0 0 0 0 0 0 0 0 0 0 0 0 0 0 0 8 24 12
0 0 0 0 0 0 0 0 0 0 0 0 0 0 0 0 0 0 0 0 0 0 0 0 0 0 0 0 0 0 0 0 0 0 0 0 0 0 0 0 0 0 0 0 0 0 0 0 0 0 0 0 0 0 0 0 0 0 0 0 0 0 0 0 0 0 0 0 0 0 0 0 0 0 0 0 0 0 0 0 0 0 0 0 0 0 0 0 0 0 0 0 0 0 0 0 0 0 0 0 0 0 0
0 0 0 0 0 0 0 0 0 0 0 0 0 0 0 0 0 0 0 0 0 0 0 0 0 0 0 0 0 0 0 0 0 0 0 8 8 0 8 12 8 0 0 0 0 0 0 0 0 0 0 0 0 0 0 0 0 0 0 0 0 0 0 0 0 0 0 0 0 0 0 0 0 0 0 0 0 0 0 0 0 0 0 0 0 0 0 0 0 8 0 0 0 0 0 0 0 0 0 0 0 0 0
0 0 0 0 0 0 0 0 0 0 0 0 0 0 0 0 0 0 0 0 0 0 0 0 0 0 0 0 0 0 0 0 0 0 12 20 20 20 24 20 12 8 0 0 0 0 0 0 0 0 0 0 0 0 0 0 0 0 0 0 0 0 0 0 0 8 8 0 0 0 0 0 0 0 0 0 0 0 0 0 0 0 0 8 8 12 12 8 8 8 0 0 0 0 0 0 0 0 8 0 8 44 32
0 0 0 0 0 0 0 0 0 0 0 0 0 0 0 0 0 0 0 0 0 0 0 0 0 0 0 0 0 0 0 0 0 0 8 12 20 12 32 24 20 12 0 0 0 0 0 0 0 0 0 0 0 0 0 0 0 0 0 0 0 0 0 8 12 8 0 0 0 0 0 0 0 0 0 0 0 8 8 8 8 8 12 20 20 20 12 8 0 0 0 0 0 0 0 0 8 32 44 48 56 64 44
0 0 0 0 0 0 0 0 0 0 0 0 0 0 0 0 0 0 0 0 0 0 0 0 0 0 0 0 0 0 0 0 0 0 0 0 0 12 32 32 20 12 0 0 0 0 0 0 0 0 0 0 0 0 0 0 0 0 0 8 8 8 8 12 12 8 12 8 8 8 12 12 12 8 8 0 0 8 8 12 20 20 12 20 24 24 12 8 0 0 0 0 0 0 0 0 0 8 24 24 24 56 36
0 0 0 0 0 0 0 0 0 0 0 0 0 0 0 0 0 0 0 0 0 0 0 0 0 0 0 0 0 0 0 0 0 0 0 0 0 8 32 32 20 12 0 0 0 0 0 0 0 0 0 0 0 0 0 0 0 0 8 12 12 12 20 24 24 24 24 24 24 24 24 24 20 12 8 0 0 8 8 12 20 12 12 20 24 24 12 8 8 0 0 0 0 0 0 8 12 24 36 20 0 0 0
0 0 0 0 0 0 0 0 0 0 0 0 0 0 0 0 0 0 0 0 0 0 0 0 0 0 0 0 0 0 0 0 0 0 0 0 8 24 32 24 12 8 0 0 0 0 0 0 0 0 0 0 0 0 0 0 0 0 12 20 24 24 32 36 36 44 44 44 44 44 36 32 20 8 0 0 8 8 0 8 12 8 8 0 8 12 8 8 12 12 12 8 0 0 0 8 12 8 0 0 0 0 0
0 0 0 0 0 0 0 0 0 0 0 0 0 0 0 0 0 0 0 0 0 0 0 0 0 0 0 0 0 0 0 0 0 0 0 0 0 8 24 24 12 0 0 0 0 0 0 0 0 0 0 0 0 0 0 0 0 0 12 24 36 44 56 56 56 56 64 64 64 56 36 24 12 0 8 8 8 8 0 0 0 0 0 0 0 8 0 8 12 20 8 0 0 0 0 0 0 0 0 0 0 0 0
0 0 0 0 0 0 0 0 0 0 0 0 0 0 0 0 0 0 0 0 0 0 0 0 0 0 0 0 0 0 0 0 0 0 0 0 0 12 12 12 8 0 0 0 0 0 0 0 0 0 0 0 8 0 0 0 8 12 24 36 48 68 76 68 68 68 88 80 64 48 32 20 8 0 8 12 8 8 0 0 0 0 0 0 0 0 0 0 0 12 0 0 0 0 0 0 0 0 0 0 0 0 0
0 0 0 0 0 0 0 0 0 0 0 0 0 0 0 0 0 0 0 0 0 0 0 0 0 0 0 0 0 0 0 0 0 0 0 8 12 8 8 0 0 0 0 0 0 0 0 0 0 0 0 8 12 8 8 20 24 32 32 48 76 92 88 80 88 92 80 64 48 32 20 8 8 8 12 12 12 8 0 0 0 0 0 0 0 0 0 0 8 8 0 0 0 0 0 0 0 0 0 0 0 0 0
0 0 0 0 0 0 0 0 0 0 0 0 0 0 0 0 0 0 0 0 0 0 0 0 0 0 0 0 0 0 0 0 0 0 0 8 12 8 8 0 0 0 0 0 0 0 0 0 0 0 0 8 20 24 32 36 44 48 64 80 92 92 92 92 88 76 56 36 20 12 8 8 12 20 20 20 12 8 0 0 0 0 0 0 0 0 0 0 0 8 8 8 8 0 0 0 0 0 0 0 0 0 0
0 0 0 0 0 0 0 0 0 0 0 0 0 0 0 0 0 0 0 0 0 0 0 0 0 0 0 0 0 0 0 0 0 0 0 8 20 8 8 0 0 0 0 0 0 0 0 0 0 0 8 20 32 36 48 56 68 80 92 92 92 92 88 80 68 48 24 12 8 8 12 20 24 24 24 20 12 12 8 8 0 0 8 12 8 8 8 0 8 12 8 12 12 12 8 0 0 0 0 0 0 0 0
0 0 0 0 0 0 0 0 0 0 0 0 0 0 0 0 0 0 0 0 0 0 0 0 0 0 0 0 0 0 0 0 0 0 0 8 20 12 0 0 0 0 0 0 0 0 0 0 0 0 20 32 36 48 64 76 88 92 92 92 80 76 48 44 36 20 8 0 8 12 20 24 32 36 32 24 20 20 12 12 12 12 12 20 20 12 12 8 12 24 12 8 12 12 8 8 0 0 0 0 0 0 0
0 0 0 0 0 0 0 0 0 0 0 0 0 0 0 0 0 0 0 0 0 0 0 0 0 0 0 0 0 0 0 0 0 0 0 8 12 12 0 0 0 0 0 0 0 0 0 0 0 0 24 36 44 76 80 88 92 92 88 68 48 32 20 12 12 8 8 8 20 24 24 32 36 36 32 32 32 24 20 20 20 24 24 24 32 24 24 20 12 8 8 8 8 8 8 0 0 0 0 0 0 0 0
0 0 0 0 0 0 0 0 0 0 0 0 0 0 0 0 0 0 0 0 0 0 0 0 0 0 0 0 0 0 0 0 0 0 0 8 12 8 0 0 0 0 0 0 0 0 0 0 8 12 24 48 68 80 80 80 80 80 68 48 24 20 12 12 12 12 12 20 24 32 36 36 36 32 32 36 36 24 24 24 32 32 32 36 36 36 32 24 20 8 8 0 0 8 0 0 0 0 0 0 0 0 0
0 0 0 0 0 0 0 0 0 0 0 0 0 0 0 0 0 0 0 0 0 0 0 0 0 0 0 0 0 0 0 0 0 0 0 0 8 8 0 0 0 0 0 0 0 0 0 8 20 20 32 56 76 80 80 80 76 68 64 36 20 12 12 12 12 20 24 24 24 32 36 36 32 24 32 36 32 20 32 32 36 44 44 44 48 48 36 24 20 12 12 8 8 0 0 0 0 0 0 0 0 0 0
0 0 0 0 0 0 0 0 0 0 0 0 0 0 0 0 0 0 0 0 0 0 0 0 0 0 0 0 0 0 0 0 0 0 0 0 0 0 0 0 0 0 0 0 0 8 12 20 32 44 44 56 68 76 68 68 68 68 56 44 24 20 20 20 20 24 24 32 36 36 36 32 24 24 32 32 20 12 24 36 44 48 56 64 64 56 44 32 20 20 12 12 8 8 0 0 0 0 0 0 0 0 0
0 0 0 0 0 0 0 0 0 0 0 0 0 0 0 0 0 0 0 0 0 0 0 0 0 0 0 0 0 0 0 0 0 0 0 0 0 0 0 0 0 0 0 8 12 24 32 44 56 64 56 56 56 68 64 64 64 76 64 56 44 36 32 24 24 32 36 36 44 44 36 32 32 32 24 20 20 20 36 48 56 76 80 76 68 56 44 32 24 24 20 12 8 8 0 0 0 0 0 0 0 0 0
0 0 0 0 0 0 0 0 0 0 0 0 0 0 0 0 0 0 0 0 0 0 0 0 0 0 0 0 0 0 0 0 0 0 0 0 0 8 8 8 8 8 12 20 32 44 56 76 80 68 56 56 56 64 68 68 68 88 88 80 76 44 32 32 32 36 44 48 56 48 48 44 36 24 24 24 24 32 44 56 64 76 76 64 56 48 44 36 32 20 12 8 8 0 0 0 0 0 0 0 0 0 0
0 0 0 0 0 0 0 0 0 0 0 0 0 0 0 0 0 0 0 0 0 0 0 0 0 0 0 0 0 0 0 0 0 0 0 0 12 12 12 12 12 20 32 44 56 76 88 88 76 64 56 56 64 76 76 80 88 92 92 92 80 44 36 32 36 44 44 56 68 68 56 44 36 36 36 36 44 44 48 48 48 56 48 44 44 48 44 36 32 20 12 8 0 0 0 0 0 0 0 0 8 0 0
0 0 0 0 0 0 0 0 0 0 0 0 0 0 0 0 0 0 0 0 0 0 0 0 0 0 0 0 0 0 0 0 0 0 8 12 24 32 32 24 32 36 48 64 76 92 92 80 68 64 56 64 76 80 88 92 92 92 92 88 68 36 32 24 32 44 44 64 80 76 56 48 48 48 48 56 56 48 44 36 32 32 44 44 36 44 36 36 32 20 8 0 0 0 0 0 0 0 0 0 0 8 8
12 12 12 8 0 0 0 0 0 0 0 0 0 0 0 0 0 0 0 0 0 0 0 0 0 0 0 0 0 0 0 0 0 0 12 32 44 44 44 44 44 56 64 80 92 92 88 80 68 64 64 68 80 92 92 92 92 92 76 64 48 32 32 32 32 44 64 68 68 56 56 56 56 48 56 64 56 48 36 32 32 44 36 36 36 36 32 32 24 20 8 0 0 0 0 0 0 0 0 0 0 0 8
32 36 36 20 0 0 0 0 0 0 0 0 0 0 0 0 0 0 0 0 0 0 0 0 0 0 0 0 0 0 0 0 0 0 0 32 56 56 56 56 56 64 80 92 92 88 80 76 76 64 68 76 80 92 92 88 76 68 36 32 32 44 36 44 48 64 68 68 64 64 56 48 44 36 48 56 56 36 32 24 32 64 32 24 24 32 32 24 20 8 0 0 8 8 8 8 8 8 0 0 0 0 8
68 76 68 56 44 20 8 0 0 0 0 0 0 0 0 0 0 0 0 0 0 0 0 0 0 0 0 0 0 0 0 0 0 0 0 0 20 68 68 68 76 88 92 88 76 80 76 76 68 68 76 80 88 92 68 56 44 32 24 24 36 48 48 56 64 68 68 68 68 64 44 36 36 32 32 44 44 36 32 24 36 88 36 20 20 24 24 20 8 0 8 8 8 8 8 8 8 8 8 8 0 0 8
8 24 56 64 56 32 20 12 8 8 0 0 0 0 0 0 0 0 0 0 0 0 0 0 0 0 0 0 0 0 0 0 0 0 0 0 0 12 48 64 68 92 80 76 80 76 76 76 68 68 76 76 68 56 44 44 48 44 32 44 56 56 64 64 64 68 68 68 56 36 36 36 36 32 32 32 36 44 36 32 44 92 68 36 20 20 20 12 8 12 12 12 12 12 12 12 12 12 8 8 0 0 0
12 20 20 12 8 32 24 12 12 8 8 8 8 0 0 0 0 0 0 0 0 0 0 0 0 0 0 0 0 0 0 0 0 0 0 0 0 8 20 48 80 76 76 76 76 68 76 76 76 76 76 64 48 36 56 64 64 48 48 64 76 64 64 68 68 64 68 56 44 36 32 32 32 32 32 36 44 44 36 32 32 36 32 24 20 20 12 12 20 20 20 12 12 12 12 12 12 12 8 8 0 0 0
0 0 8 8 20 44 36 24 20 12 12 8 12 12 12 12 12 0 0 0 0 0 0 0 0 0 0 0 0 0 0 0 0 0 0 0 0 0 32 44 48 44 76 76 76 76 76 76 80 80 68 64 48 56 68 68 56 48 64 64 56 64 68 76 68 64 48 44 44 36 32 24 24 32 44 44 48 48 44 32 24 24 20 20 12 8 20 20 20 20 20 12 12 12 12 12 12 12 8 8 8 8 8
0 0 0 44 76 20 36 44 36 32 24 20 20 20 32 32 24 12 0 0 0 0 0 0 0 0 0 0 0 0 0 0 0 0 0 0 0 0 36 44 44 80 80 80 76 80 80 80 88 88 76 68 64 68 68 68 64 48 44 44 48 56 56 64 68 56 48 36 36 32 32 24 20 32 44 48 56 56 44 36 32 24 24 24 20 12 24 24 24 24 20 12 12 12 20 12 12 12 12 8 8 8 8
0 0 0 0 8 44 24 12 20 44 36 32 32 44 44 44 36 20 8 0 0 0 0 0 0 0 0 0 0 0 0 0 0 0 0 0 0 0 32 56 76 80 80 80 80 88 80 80 88 88 76 76 76 76 76 68 48 36 24 32 44 64 56 64 64 56 44 44 44 36 32 32 36 44 44 48 64 56 44 36 32 20 20 20 24 32 32 32 32 24 20 20 20 20 12 12 12 8 8 12 8 0 0
0 0 0 0 0 0 0 0 0 20 20 32 48 56 56 48 36 12 8 0 0 0 0 0 0 0 0 0 0 0 0 0 0 0 0 0 8 44 36 64 88 80 88 88 80 76 80 88 88 92 88 88 92 92 76 56 44 24 32 36 48 68 56 56 56 48 48 48 44 36 36 36 44 44 44 48 56 48 44 36 32 20 24 32 36 36 44 44 36 24 20 20 20 12 12 12 12 12 8 8 8 0 0
0 0 0 0 0 0 0 0 0 0 0 0 12 48 44 36 24 12 8 0 0 0 0 0 0 0 0 0 0 0 0 0 0 0 0 8 20 36 48 68 88 88 88 80 76 80 80 88 92 92 80 76 68 56 56 44 36 32 24 36 48 68 56 48 48 36 44 44 36 36 36 36 44 44 44 44 44 44 44 36 32 36 32 36 44 44 44 44 36 24 20 20 20 20 20 12 12 8 12 8 0 0 0
0 0 0 0 0 0 0 0 0 0 0 0 12 64 44 32 20 12 8 0 0 0 0 0 0 0 0 0 0 0 0 0 0 0 8 32 48 44 76 88 88 88 80 76 76 80 92 92 92 92 76 68 68 64 56 44 36 36 32 44 48 48 48 48 44 32 36 36 32 32 36 36 36 36 36 36 36 44 32 32 36 44 48 48 48 64 48 44 36 32 24 20 20 20 20 20 12 8 8 0 0 0 0